Hourly Weather Barma

Today, 26 September, Saturday

Time Temperature Precipitation Wind Pressure Humidity
00:00 +13°C° 0 mm 3 mps 747 mmHg 74%
01:00 +13°C° 0 mm 3 mps 747 mmHg 73%
02:00 +12°C° 0 mm 3 mps 747 mmHg 73%
03:00 +12°C° 0 mm 4 mps 747 mmHg 70%
04:00 +12°C° 0 mm 4 mps 747 mmHg 69%
05:00 +12°C° 0 mm 4 mps 747 mmHg 68%
06:00 +11°C° 0 mm 3 mps 747 mmHg 67%
07:00 +12°C° 0 mm 4 mps 747 mmHg 64%
08:00 +13°C° 0 mm 4 mps 747 mmHg 60%
09:00 +14°C° 0 mm 5 mps 748 mmHg 56%
10:00 +16°C° 0 mm 5 mps 748 mmHg 52%
11:00 +19°C° 0 mm 5 mps 748 mmHg 48%
12:00 +20°C° 0 mm 5 mps 748 mmHg 44%
13:00 +21°C° 0 mm 5 mps 748 mmHg 43%
14:00 +21°C° 0 mm 5 mps 748 mmHg 43%
15:00 +22°C° 0 mm 5 mps 748 mmHg 42%
16:00 +21°C° 0 mm 5 mps 748 mmHg 47%
17:00 +19°C° 0 mm 4 mps 748 mmHg 51%
18:00 +18°C° 0 mm 4 mps 748 mmHg 56%
19:00 +18°C° 0 mm 4 mps 748 mmHg 55%
20:00 +18°C° 0 mm 4 mps 748 mmHg 53%
21:00 +16°C° 0 mm 5 mps 748 mmHg 52%
22:00 +16°C° 0 mm 5 mps 748 mmHg 50%
23:00 +16°C° 0 mm 5 mps 748 mmHg 47%

Tomorrow, 27 September, Sunday

Time Temperature Precipitation Wind Pressure Humidity
00:00 +15°C° 0 mm 5 mps 749 mmHg 44%
01:00 +14°C° 0 mm 5 mps 749 mmHg 44%
02:00 +14°C° 0 mm 5 mps 749 mmHg 44%
03:00 +13°C° 0 mm 5 mps 749 mmHg 44%
04:00 +12°C° 0 mm 5 mps 749 mmHg 44%
05:00 +10°C° 0 mm 5 mps 749 mmHg 45%
06:00 +10°C° 0 mm 5 mps 749 mmHg 46%
07:00 +10°C° 0 mm 5 mps 750 mmHg 47%
08:00 +11°C° 0 mm 6 mps 750 mmHg 47%
09:00 +13°C° 0 mm 6 mps 751 mmHg 48%
10:00 +14°C° 0 mm 6 mps 750 mmHg 45%
11:00 +15°C° 0 mm 7 mps 750 mmHg 41%
12:00 +17°C° 0 mm 7 mps 750 mmHg 38%
13:00 +17°C° 0 mm 7 mps 750 mmHg 37%
14:00 +17°C° 0 mm 7 mps 750 mmHg 37%
15:00 +18°C° 0 mm 7 mps 750 mmHg 36%
16:00 +17°C° 0 mm 6 mps 750 mmHg 39%
17:00 +16°C° 0 mm 6 mps 750 mmHg 42%
18:00 +15°C° 0 mm 5 mps 749 mmHg 45%
19:00 +14°C° 0 mm 5 mps 749 mmHg 44%
20:00 +14°C° 0 mm 6 mps 749 mmHg 44%
21:00 +13°C° 0 mm 6 mps 750 mmHg 44%
22:00 +13°C° 0 mm 6 mps 750 mmHg 44%
23:00 +13°C° 0 mm 6 mps 750 mmHg 45%

Day after tomorrow, 28 September, Monday

Time Temperature Precipitation Wind Pressure Humidity
00:00 +13°C° 0 mm 6 mps 750 mmHg 46%
01:00 +13°C° 0 mm 6 mps 750 mmHg 45%
02:00 +13°C° 0 mm 6 mps 750 mmHg 45%
03:00 +11°C° 0 mm 6 mps 750 mmHg 44%
04:00 +11°C° 0 mm 6 mps 750 mmHg 44%
05:00 +11°C° 0 mm 6 mps 750 mmHg 43%
06:00 +11°C° 0 mm 6 mps 750 mmHg 43%
07:00 +10°C° 0.2 mm 6 mps 750 mmHg 53%
08:00 +10°C° 0.2 mm 6 mps 750 mmHg 63%
09:00 +9°C° 0.2 mm 6 mps 751 mmHg 72%
10:00 +10°C° 0.1 mm 6 mps 751 mmHg 73%
11:00 +10°C° 0.1 mm 5 mps 751 mmHg 74%
12:00 +12°C° 0.1 mm 5 mps 751 mmHg 75%
13:00 +13°C° 0 mm 5 mps 751 mmHg 70%
14:00 +14°C° 0 mm 5 mps 751 mmHg 65%
15:00 +16°C° 0 mm 5 mps 752 mmHg 61%
16:00 +15°C° 0 mm 5 mps 752 mmHg 62%
17:00 +15°C° 0 mm 5 mps 752 mmHg 64%
18:00 +14°C° 0 mm 4 mps 752 mmHg 65%
19:00 +14°C° 0 mm 4 mps 752 mmHg 62%
20:00 +13°C° 0 mm 5 mps 752 mmHg 60%
21:00 +13°C° 0 mm 5 mps 752 mmHg 57%
22:00 +13°C° 0 mm 5 mps 752 mmHg 54%
23:00 +13°C° 0 mm 4 mps 752 mmHg 51%

29 September, Tuesday

Time Temperature Precipitation Wind Pressure Humidity
00:00 +13°C° 0 mm 4 mps 752 mmHg 47%
01:00 +13°C° 0 mm 4 mps 752 mmHg 47%
02:00 +13°C° 0 mm 4 mps 752 mmHg 46%
03:00 +13°C° 0 mm 4 mps 752 mmHg 45%
04:00 +13°C° 0 mm 4 mps 752 mmHg 44%
05:00 +13°C° 0 mm 5 mps 752 mmHg 42%
06:00 +13°C° 0 mm 5 mps 751 mmHg 41%
07:00 +13°C° 0 mm 5 mps 751 mmHg 43%
08:00 +13°C° 0 mm 5 mps 751 mmHg 44%
09:00 +14°C° 0 mm 6 mps 752 mmHg 46%
10:00 +14°C° 0 mm 6 mps 751 mmHg 44%
11:00 +15°C° 0 mm 6 mps 751 mmHg 43%
12:00 +16°C° 0 mm 7 mps 751 mmHg 41%
13:00 +16°C° 0 mm 7 mps 751 mmHg 39%
14:00 +17°C° 0 mm 7 mps 751 mmHg 37%
15:00 +17°C° 0 mm 7 mps 751 mmHg 35%
16:00 +16°C° 0 mm 6 mps 750 mmHg 36%
17:00 +15°C° 0 mm 6 mps 750 mmHg 38%
18:00 +14°C° 0 mm 5 mps 750 mmHg 40%
19:00 +14°C° 0 mm 5 mps 750 mmHg 40%
20:00 +13°C° 0 mm 5 mps 750 mmHg 40%
21:00 +12°C° 0 mm 5 mps 750 mmHg 40%
22:00 +12°C° 0 mm 5 mps 750 mmHg 40%
23:00 +12°C° 0 mm 5 mps 750 mmHg 40%

30 September, Wednesday

Time Temperature Precipitation Wind Pressure Humidity
00:00 +10°C° 0 mm 5 mps 749 mmHg 40%
01:00 +10°C° 0 mm 5 mps 749 mmHg 41%
02:00 +10°C° 0 mm 5 mps 749 mmHg 42%
03:00 +9°C° 0 mm 5 mps 749 mmHg 44%
04:00 +9°C° 0 mm 5 mps 749 mmHg 45%
05:00 +9°C° 0 mm 5 mps 749 mmHg 46%
06:00 +9°C° 0 mm 5 mps 749 mmHg 47%
07:00 +10°C° 0 mm 6 mps 749 mmHg 47%
08:00 +10°C° 0 mm 6 mps 749 mmHg 47%
09:00 +11°C° 0 mm 7 mps 749 mmHg 47%
10:00 +12°C° 0 mm 7 mps 749 mmHg 43%
11:00 +15°C° 0 mm 8 mps 749 mmHg 39%
12:00 +16°C° 0 mm 8 mps 749 mmHg 35%
13:00 +17°C° 0 mm 8 mps 749 mmHg 34%
14:00 +17°C° 0 mm 8 mps 748 mmHg 34%
15:00 +17°C° 0 mm 8 mps 748 mmHg 34%
16:00 +16°C° 0 mm 7 mps 748 mmHg 36%
17:00 +16°C° 0 mm 6 mps 748 mmHg 39%
18:00 +15°C° 0 mm 5 mps 748 mmHg 41%
19:00 +14°C° 0 mm 5 mps 748 mmHg 42%
20:00 +14°C° 0 mm 6 mps 748 mmHg 43%
21:00 +13°C° 0 mm 6 mps 748 mmHg 44%
22:00 +13°C° 0 mm 6 mps 748 mmHg 45%
23:00 +13°C° 0 mm 6 mps 748 mmHg 46%

1 October, Thursday

Time Temperature Precipitation Wind Pressure Humidity
00:00 +13°C° 0 mm 6 mps 748 mmHg 47%
01:00 +13°C° 0 mm 6 mps 748 mmHg 47%
02:00 +11°C° 0 mm 6 mps 748 mmHg 47%
03:00 +11°C° 0 mm 6 mps 748 mmHg 47%
04:00 +11°C° 0 mm 6 mps 748 mmHg 49%
05:00 +11°C° 0 mm 6 mps 748 mmHg 52%
06:00 +10°C° 0 mm 6 mps 748 mmHg 54%
07:00 +11°C° 0 mm 7 mps 748 mmHg 52%
08:00 +12°C° 0 mm 8 mps 748 mmHg 50%
09:00 +13°C° 0 mm 8 mps 748 mmHg 49%
10:00 +15°C° 0 mm 8 mps 748 mmHg 45%
11:00 +16°C° 0 mm 9 mps 748 mmHg 41%
12:00 +17°C° 0 mm 9 mps 748 mmHg 37%
13:00 +18°C° 0 mm 8 mps 748 mmHg 37%
14:00 +18°C° 0 mm 8 mps 748 mmHg 36%
15:00 +18°C° 0 mm 8 mps 748 mmHg 35%
16:00 +17°C° 0 mm 7 mps 748 mmHg 38%
17:00 +16°C° 0 mm 6 mps 748 mmHg 41%
18:00 +15°C° 0 mm 5 mps 748 mmHg 44%
19:00 +15°C° 0 mm 5 mps 748 mmHg 44%
20:00 +15°C° 0 mm 5 mps 749 mmHg 45%
21:00 +14°C° 0 mm 6 mps 749 mmHg 46%
22:00 +14°C° 0 mm 6 mps 749 mmHg 47%
23:00 +14°C° 0 mm 6 mps 749 mmHg 48%
Show more